Location: Karlovy Vary
(50.2319°N, 12.8720°E)
Time: 14:21:04
(UTC+02:00)

ISS - Visible Passes

Search period start: 25 June 2019 00:00
Search period end: 05 July 2019 00:00
Orbit: 408 x 418 km, 51.6° (Epoch: 25 June)

Date Brightness Start Highest point End Pass type
(mag) Time Alt. Az. Time Alt. Az. Time Alt. Az.
01 Jul -1.3 04:14:49 10° SSE 04:16:04 12° SE 04:17:19 10° ESE visible
03 Jul -2.2 04:10:26 10° SSW 04:13:10 24° SE 04:15:53 10° E visible
04 Jul -1.7 03:22:15 12° S 03:23:43 16° SE 03:25:50 10° E visible
